Vertical_Velocity
1 -2 -0 1 -0 -0 1 0 -0 0 -1 -1 -1 2 -0 -0 -1 -1 -0 -0 -2 -1 2 2 -0 0 -2 -0 -0 -1 -1 1 -1
-1 3 1 -0 1 -1 -0 -1 -0 1 -1 -0 -0 1 -1 -0 0 -1 -1 0 2 0 -1 -1 2 -0 -1 -0 -0 0 0 0 -0
-3 -2 2 -2 0 -1 -2 -1 -1 -1 -1 -0 0 0 0 1 1 1 -1 -1 -1 -1 1 -0 0 1 -2 1 -1 -0 0 -1 0
-1 -3 0 0 0 -1 1 -1 0 -0 -0 0 0 -0 0 1 1 0 1 1 -1 -1 -2 1 -1 1 -1 0 -1 0 -1 -1 -2
0 -3 -1 -0 -1 -2 -1 -2 -0 -1 -1 -2 -1 -0 -1 -1 -0 -0 -0 0 1 0 -2 -2 -1 -1 -2 -2 -1 -0 0 -2 0
0 -2 -1 -0 -0 0 -1 -0 -1 -1 -2 -2 -2 -1 -1 -1 -1 1 1 -1 -1 0 0 -2 1 -2 1 0 -1 -2 -1 -2 1
-1 -2 1 2 1 -1 -1 -0 -1 -1 -1 -1 -1 -2 0 1 1 1 2 -0 -0 -1 -0 1 0 1 -1 1 -3 -0 -0 -1 3
1 -0 1 0 -1 -2 -1 -0 1 2 1 -0 -1 0 -0 -1 -0 0 -1 1 -4 -1 -3 -0 -2 -1 -0 -1 -0 1 -1 1 1
-3 -2 -3 1 1 0 1 0 1 0 -1 -1 1 -1 -1 -2 -1 -0 -0 -3 1 -0 -1 1 3 2 1 -1 -1 3 1 -0 -0
-1 1 0 1 -1 -1 -2 -2 -1 -1 0 -1 -1 -1 1 -1 -1 -0 -1 1 -2 1 -2 -0 -0 2 -1 -3 -3 -1 0 -1 0
1 0 -1 1 -1 -1 -1 -1 -1 -1 0 -1 -1 0 -0 0 0 1 0 -1 -0 -0 -1 -1 -2 1 -1 0 -0 -3 -3 -3 0
1 -1 0 1 -0 -0 -1 -2 -3 -3 -2 -2 0 -0 -1 -1 -0 -1 -2 -0 -0 -1 -0 1 -1 1 -1 -1 -0 -1 -2 -1 -1
-1 0 1 0 -0 -0 -2 -1 -1 -1 0 2 1 -1 -1 2 0 1 -0 -2 0 -0 0 0 -0 -0 -3 -0 -2 -1 0 1 -2
-2 1 1 -1 -0 0 -1 -1 -1 1 1 1 1 -0 -1 2 -0 -0 -1 -1 -1 0 -1 -1 -1 -1 -1 0 -0 -4 -4 -4 -4
-2 0 -1 -1 -1 -0 -0 0 -4 -2 1 0 0 -1 -1 0 1 -0 -1 0 -1 -1 -1 -1 -1 -3 -3 -2 -1 0 -0 1 -6
-1 -1 -1 -0 -0 0 1 1 1 -4 -1 2 4 2 0 2 0 2 2 2 2 2 0 -0 0 2 2 0 -2 -4 -3 -4 -6
-1 0 1 1 -0 -0 -0 0 0 -1 -4 -2 -3 -4 11 4 -0 3 4 1 1 3 0 -0 -1 -3 -3 -2 -2 -1 -1 -1 -2
1 1 -1 -0 0 0 1 -0 -0 2 1 -4 -5 -10 -6 -10 1 5 3 -1 1 1 1 0 -1 -2 -3 -3 -3 -3 -4 -3 -4
-0 -0 -0 0 0 -0 -1 -1 -2 -1 -2 1 2 -2 -9 -15 -21 4 1 -2 -1 -1 -0 -3 -3 -4 -3 -2 -3 -3 -3 -3 -2
0 1 1 -1 -1 -1 -0 -1 -3 -3 -2 -2 1 4 4 3 -6 -12 -7 -1 1 1 0 0 -2 -3 -4 -3 -3 -4 -2 -2 -2
Height
3132 3130 3130 3130 3129 3129 3128 3127 3127 3126 3126 3125 3124 3122 3122 3120 3120 3119 3118 3116 3115 3115 3115 3114 3114 3115 3113 3112 3113 3113 3113 3112 3112
3130 3130 3128 3127 3127 3126 3125 3125 3124 3123 3122 3122 3121 3120 3119 3118 3117 3115 3114 3113 3112 3111 3110 3110 3110 3110 3109 3108 3108 3108 3108 3107 3108
3128 3127 3126 3125 3125 3124 3123 3123 3121 3121 3120 3119 3118 3117 3116 3115 3114 3112 3111 3110 3109 3107 3107 3106 3106 3105 3104 3104 3103 3102 3103 3102 3102
3127 3126 3125 3123 3123 3122 3121 3120 3119 3118 3117 3117 3116 3115 3113 3112 3111 3109 3108 3106 3105 3104 3103 3102 3102 3100 3100 3099 3099 3098 3098 3098 3097
3125 3124 3123 3122 3121 3120 3120 3119 3118 3116 3115 3114 3113 3112 3111 3109 3108 3106 3104 3103 3101 3100 3099 3098 3097 3096 3096 3095 3094 3094 3093 3093 3092
3125 3124 3123 3122 3121 3120 3119 3118 3117 3115 3113 3112 3110 3109 3107 3106 3104 3102 3100 3098 3097 3096 3095 3093 3092 3092 3090 3090 3090 3089 3089 3088 3087
3124 3123 3122 3121 3119 3118 3116 3115 3114 3113 3111 3110 3108 3106 3105 3103 3100 3098 3096 3094 3092 3091 3090 3088 3087 3086 3085 3084 3084 3083 3083 3082 3081
3122 3121 3120 3118 3116 3115 3114 3113 3112 3111 3109 3107 3105 3103 3101 3098 3095 3093 3091 3089 3088 3085 3083 3082 3081 3080 3079 3077 3077 3077 3076 3074 3074
3120 3118 3117 3116 3114 3112 3111 3109 3107 3105 3103 3101 3099 3096 3093 3091 3089 3087 3085 3083 3080 3079 3078 3076 3075 3074 3072 3071 3071 3070 3069 3067 3066
3117 3115 3114 3113 3110 3108 3107 3105 3102 3101 3099 3096 3094 3091 3088 3086 3084 3081 3079 3076 3073 3071 3069 3068 3067 3066 3065 3063 3062 3061 3060 3058 3057
3114 3112 3111 3109 3107 3104 3103 3100 3098 3096 3094 3092 3089 3086 3082 3079 3077 3075 3072 3069 3067 3064 3061 3060 3058 3057 3055 3054 3053 3052 3050 3047 3047
3111 3109 3107 3105 3103 3100 3098 3095 3092 3090 3087 3085 3082 3078 3075 3072 3069 3067 3064 3061 3059 3056 3054 3052 3049 3048 3046 3045 3044 3042 3041 3040 3038
3107 3105 3103 3101 3098 3095 3093 3090 3086 3084 3081 3078 3075 3071 3068 3066 3063 3059 3056 3053 3052 3049 3046 3044 3042 3039 3036 3035 3032 3032 3031 3029 3027
3103 3101 3099 3096 3093 3090 3087 3083 3080 3077 3074 3072 3069 3065 3062 3060 3056 3053 3049 3046 3043 3041 3038 3036 3033 3030 3028 3026 3023 3020 3019 3017 3015
3099 3097 3095 3091 3088 3085 3081 3077 3073 3070 3068 3066 3063 3059 3055 3053 3050 3046 3043 3040 3036 3033 3030 3028 3025 3021 3018 3016 3013 3011 3008 3005 3001
3096 3093 3090 3086 3083 3080 3076 3072 3068 3064 3061 3059 3058 3054 3050 3048 3044 3041 3038 3034 3030 3027 3022 3019 3016 3013 3010 3007 3003 3000 2997 2994 2989
3091 3088 3085 3081 3077 3073 3070 3067 3063 3058 3054 3051 3048 3046 3046 3042 3038 3035 3032 3027 3023 3019 3015 3010 3006 3001 2998 2995 2992 2988 2985 2981 2978
3087 3083 3080 3076 3072 3068 3065 3061 3057 3053 3047 3042 3038 3032 3030 3027 3028 3026 3022 3016 3012 3008 3004 2999 2994 2989 2984 2979 2976 2974 2969 2965 2962
3082 3079 3075 3071 3067 3062 3058 3054 3050 3047 3042 3037 3032 3025 3018 3011 3004 3013 3011 3006 3000 2996 2991 2986 2980 2974 2969 2964 2959 2955 2951 2947 2944
3077 3074 3070 3065 3061 3056 3052 3047 3042 3038 3034 3030 3025 3020 3014 3006 2995 2984 2987 2991 2989 2983 2977 2971 2966 2960 2953 2948 2943 2939 2935 2929 2924